Snowfall_Accumulation
0.2 0.2 0.1 0.1 0.3 0.3 0.2 0.1 0.1 0.1 0.1 0.1 0.1 0.1 0.1 0.1 0.1 0.2 0.2 0.2 0.7 0.7 0.6 0.6 0.9 0.8 0.3 0.3 0.2 0.3 0.3 0.3 0.2 0.2 0.3 0.5 0.7 0.8 1.1 1.3 1.4 1.5
0.1 0.1 0.1 0.1 0.1 0.1 0.1 0.1 0.1 0.2 0.2 0.1 0.1 0.1 0.1 0.1 0.1 0.1 0.2 0.2 0.3 0.3 0.2 0.6 0.4 0.8 0.6 0.7 0.5 0.7 0.7 0.6 0.7 0.4 0.5 0.5 0.7 0.7 0.8 0.8 1.1 1.2
0.1 0.1 0.1 0.1 0.1 0.1 0.1 0.1 0.2 0.1 0.1 0.1 0.1 0.1 0.2 0.1 0.2 0.2 0.2 0.3 0.4 0.7 0.4 0.9 0.7 0.8 1.0 0.8 0.4 0.6 0.7 0.8 0.9 0.8 1.0 0.9 0.7 0.8 0.8 0.8 0.9 1.2
0.1 0.0 0.1 0.1 0.1 0.2 0.1 0.1 0.1 0.2 0.1 0.1 0.1 0.1 0.1 0.2 0.3 0.3 0.4 0.5 0.5 0.6 0.7 0.7 0.7 0.8 0.9 0.6 1.4 1.2 1.3 1.0 1.0 0.9 1.0 1.3 1.2 1.0 0.9 0.9 1.1 1.1
0.1 0.1 0.1 0.1 0.1 0.1 0.1 0.1 0.1 0.1 0.2 0.1 0.2 0.1 0.3 0.3 0.4 0.6 0.7 0.7 0.7 0.8 1.6 1.0 0.9 0.9 0.7 0.6 0.8 1.2 0.8 0.8 0.6 0.7 0.9 1.2 1.2 1.2 1.1 1.3 1.4 1.5
0.1 0.1 0.1 0.1 0.1 0.1 0.2 0.2 0.2 0.3 0.8 0.4 0.4 0.2 0.4 0.5 0.6 0.5 0.7 0.8 0.8 0.8 0.9 2.5 1.4 1.1 1.4 0.7 0.7 0.5 0.7 0.6 0.7 0.6 0.6 0.7 0.7 0.8 1.1 1.3 1.6 1.6
0.1 0.1 0.1 0.1 0.1 0.2 0.2 0.3 0.4 0.7 0.4 0.6 1.0 1.1 0.5 0.5 0.5 0.6 0.8 0.9 1.0 1.0 0.9 1.4 0.9 1.2 0.7 0.8 1.0 0.8 0.9 0.8 0.7 0.7 0.7 0.7 0.8 0.7 0.7 1.2 1.3 1.3
0.1 0.1 0.2 0.2 0.2 0.2 0.2 0.4 1.0 0.8 1.0 0.7 1.2 0.4 0.8 0.6 0.7 0.8 0.8 1.0 1.1 1.1 1.0 1.0 1.5 1.3 0.9 1.0 1.0 0.9 0.9 0.8 1.0 1.4 0.9 1.0 0.7 0.8 0.6 0.7 1.1 1.3
0.1 0.2 0.2 0.2 0.2 0.2 0.6 0.4 0.7 0.9 0.9 0.8 0.7 0.7 0.7 1.1 1.1 1.2 1.3 1.3 1.4 1.2 1.2 1.5 1.5 1.5 1.2 1.6 1.9 1.7 1.4 1.1 0.9 0.9 0.9 0.9 0.8 0.7 0.6 0.6 0.9 1.2
0.2 0.2 0.2 0.3 0.7 0.5 0.4 0.4 0.5 0.6 0.7 0.7 1.0 1.1 1.2 1.1 1.2 1.2 1.3 1.3 1.5 1.5 1.9 1.4 1.5 1.2 1.4 1.8 1.8 1.6 1.9 2.2 1.7 1.3 1.2 1.2 1.3 1.0 0.7 0.7 0.8 1.2
0.2 0.2 0.3 0.3 0.3 0.3 0.3 0.4 1.0 0.6 0.7 1.4 1.1 1.5 2.2 1.5 1.4 1.3 1.5 1.7 1.6 1.3 1.1 1.1 1.1 1.1 1.2 1.2 1.2 1.2 1.4 1.5 1.6 1.7 1.7 1.6 1.5 1.5 1.5 1.4 1.3 1.1
0.2 0.2 0.2 0.3 0.3 0.8 0.5 0.6 0.7 0.8 0.9 1.4 2.2 1.3 1.8 1.6 1.9 1.8 1.8 1.7 1.5 1.5 1.4 1.7 1.3 1.3 1.3 1.7 1.2 1.0 1.1 1.2 1.3 1.3 1.3 1.5 1.7 1.8 1.6 1.6 1.7 1.6
0.2 0.3 0.3 0.4 0.5 0.6 0.7 1.0 1.1 1.1 1.2 1.4 1.6 1.9 2.3 2.4 2.5 2.1 2.0 2.0 1.9 1.9 1.7 1.7 1.6 1.4 1.4 1.3 1.3 1.3 1.4 1.4 1.4 1.4 1.2 1.2 1.3 1.4 1.4 1.4 1.6 1.6
0.3 0.4 0.5 0.6 0.9 1.8 1.1 1.2 1.3 1.5 1.7 1.6 2.0 2.3 2.9 3.0 3.2 2.6 2.3 2.1 2.3 2.3 2.0 1.9 2.0 1.8 1.6 1.5 1.5 1.5 1.5 1.8 1.6 1.9 1.9 1.8 1.6 1.4 1.4 1.5 1.6 1.7
0.4 0.5 0.7 1.2 1.0 1.3 1.4 1.5 1.6 2.0 1.8 2.2 2.8 3.3 3.0 3.0 3.2 3.0 2.9 3.1 2.5 2.4 2.7 2.2 2.4 2.2 1.9 2.0 2.1 2.0 2.3 3.1 2.9 3.1 3.1 3.1 2.8 2.5 2.2 2.0 1.8 1.8
0.6 0.9 1.2 1.6 1.6 1.8 1.7 1.6 1.7 2.0 2.6 2.5 3.2 3.3 3.4 2.8 3.1 3.2 3.5 4.8 3.3 3.1 2.9 3.3 2.9 2.5 2.1 2.1 2.9 4.7 5.8 6.0 6.0 5.7 5.4 5.2 4.9 4.4 3.6 2.9 2.5 2.2
1.0 1.3 1.4 1.7 1.9 1.8 1.9 2.1 2.3 2.5 2.8 3.2 3.2 3.3 3.6 4.2 3.8 4.5 4.3 4.3 4.1 4.1 4.4 4.1 3.7 3.0 2.4 3.3 6.2 7.9 8.6 9.0 8.3 6.8 5.5 5.3 4.9 4.6 4.2 3.2 2.6 2.3
1.4 1.5 1.8 1.9 1.9 2.1 2.4 2.8 2.7 3.1 3.2 3.3 4.2 3.9 4.4 4.4 5.4 5.8 4.6 4.3 4.4 4.6 4.7 4.3 4.2 3.0 3.3 6.3 7.2 9.3 12.1 10.9 10.4 8.9 7.1 6.0 5.1 4.6 3.9 3.4 3.1 2.7
1.6 2.0 2.2 2.4 2.5 3.3 2.8 3.0 3.3 3.6 3.8 4.1 4.4 4.5 5.1 5.9 6.5 5.4 5.2 5.2 5.1 5.8 5.1 4.6 4.5 3.3 4.2 6.9 8.0 11.7 13.4 14.0 12.3 9.5 7.5 6.0 5.0 4.5 4.1 3.6 3.3 3.6
2.0 2.5 2.8 2.8 2.9 2.8 3.0 3.4 3.9 4.4 4.5 5.0 5.1 5.3 6.1 6.5 6.1 6.4 6.1 6.5 6.7 6.8 6.3 5.9 5.4 4.4 4.7 8.7 11.8 13.3 14.8 15.5 12.6 10.7 8.7 7.1 5.8 4.9 4.3 4.0 3.8 4.1
2.5 3.1 3.6 3.2 3.1 3.1 3.5 3.9 4.3 4.5 4.6 5.0 5.6 6.1 7.0 7.6 7.4 7.3 7.3 7.5 7.5 8.3 8.0 7.8 6.4 5.3 7.7 11.9 12.6 13.9 14.1 16.3 14.1 12.8 10.7 8.3 6.6 5.6 5.2 4.7 4.1 3.9
3.0 3.4 3.4 3.5 3.4 3.6 4.4 4.7 4.6 4.9 5.7 5.3 6.0 6.3 6.6 6.9 6.2 6.1 6.2 6.2 5.8 6.3 7.2 7.2 5.4 5.1 8.9 12.3 12.4 14.5 16.0 15.3 15.4 12.3 10.2 8.7 7.2 6.0 5.2 4.5 4.0 4.1
3.2 3.6 3.8 3.7 3.9 4.5 4.7 4.9 5.0 4.8 4.7 4.9 5.9 5.4 5.0 4.7 4.8 4.3 4.5 5.1 5.2 5.3 5.7 5.2 4.8 4.9 6.7 11.3 11.6 13.8 17.2 19.3 17.4 13.1 10.7 9.0 7.3 6.2 5.5 5.0 4.4 4.1
3.1 3.7 4.4 4.3 4.6 5.0 4.7 4.2 3.9 4.1 4.5 4.4 5.6 5.4 5.3 5.0 4.6 4.7 4.5 4.7 5.2 5.4 5.3 5.7 5.0 4.3 5.7 9.3 11.0 13.0 14.7 15.6 15.2 14.8 11.7 9.2 7.8 6.3 5.7 5.7 4.7 4.8
3.6 3.7 4.2 4.6 5.0 4.5 4.1 4.3 4.2 4.4 4.4 4.7 5.1 5.2 5.1 4.4 4.5 4.9 4.6 4.7 4.7 4.8 4.7 5.5 5.5 4.7 4.7 8.1 10.5 13.3 14.1 15.0 14.9 14.6 13.6 11.1 9.9 9.0 7.3 5.9 4.9 4.1
3.5 3.8 4.0 4.5 4.8 4.3 3.8 4.1 4.2 4.6 4.4 4.8 4.7 4.3 4.6 4.3 4.3 4.3 4.4 4.5 4.6 5.5 5.8 5.7 5.7 5.2 5.2 5.9 11.4 12.2 14.5 13.6 12.7 13.1 13.7 12.2 11.0 10.0 10.3 8.9 6.6 5.6